{"data":{"norad_id":65847,"intl_designator":"2025-221AA","name":"STARLINK-35262","alt_names":[],"object_type":"PAYLOAD","status":"ACTIVE","operator":null,"country":"US","launch_date":"2025-09-29","launch_site_code":"AFWTR","launch_vehicle":null,"mission":null,"orbit_class":"UNKNOWN","rcs_meters":null,"size_class":null,"mass_kg":null,"dimensions":null,"purposes":["comms"],"wikipedia_slug":null,"has_3d_model":false,"image_url":null,"decayed_at":null,"tle_current":{"epoch":"2026-09-20T07:04:30.312192Z","epoch_age_seconds":123934,"freshness":"FRESH","line1":"1 65847U 25221AA  26263.29479528  .00008050  00000+0  24913-3 0  9991","line2":"2 65847  53.1566 262.6284 0001242  92.3037 267.8108 15.34400360 55908","mean_motion":15.3440036,"eccentricity":0.0001242,"inclination_deg":53.1566,"raan_deg":262.6284,"arg_perigee_deg":92.3037,"mean_anomaly_deg":267.8108,"bstar":0.00024913,"rev_number":5590,"period_min":93.847736062836,"perigee_km":461.85253798651,"apogee_km":463.55180243639,"semimajor_km":6840.8391702114,"source":"CELESTRAK","updated_at":"2026-09-21T09:00:35.724010Z"}}}